FENGYUN 1C DEB, 30616

Orbit data source: Space-Track

FENGYUN 1C DEB, 30616 is space debris in SSO originally from a launch on Mon, 10 May 1999 UTC launched from the Taiyaun Space Center, China (TSC). Fengyun 1C debris stems from the Chinese weather satellite Fengyun-1C, which was intentionally destroyed by a Chinese anti-satellite missile in 2007. This event dramatically increased the amount of space debris, with thousands of trackable fragments posing hazards to satellites and human spaceflight. The Fengyun 1C debris cloud has become a focal point in discussions about space sustainability and the need for international regulations to prevent the creation of new debris.

Loading next visibility...
Identifier
30616, 1999-025AMX
Orbit
SSO
Country
Flag of CNCN / PRC
Related business
Manufacturer
Unknown
Mission
Spacecraft
Bus & Motor
Unknown
Mass
Unknown
Launch date (UTC)
1999-05-10 (27 years ago)
Launch vehicle
Unknown
Launch site
Taiyaun Space Center, China (TSC)
Object type
Payload
Rocket body
Debris
Shape & HBR
Unknown shape, 0.1 m
Radar Cross Section
Small (<0.1 m²)

Expand to show TLE details & history
Last TLE update: 2 days ago

TLE from 2 days ago
0 FENGYUN 1C DEB
1 30616U 99025AMX 26207.01458081  .00000970  00000-0  12752-2 0  9990
2 30616  98.6256 236.2370 0383416  50.3836 313.0487 13.36548176947096
Epoch: 2026-07-26T00:20Z
TLE epoch observation values (Epoch: 2026-07-26T00:20:59.781Z)
Latitude
-0°
Longitude
-72.73068°
Altitude
934.754 km
Speed
7.477 km/s
True Right ascension
15h 44m 56s
True Declination
0° 00' 00"
Sunlit
Object was in daylight at epoch
Visualization orbit readout
Latitude
Unknown
Longitude
Unknown
Altitude
Unknown
Speed
Unknown
Apparent Right ascension
Unknown
Apparent Declination
Unknown
Sunlit
N/A
Visualization observer readout
Local Sidereal Time
02:52:08
Azimuth
Unknown
Elevation
Unknown
Doppler factor
Unknown
Orbital elements
Apogee altitude
1,406.895 km
Perigee altitude
831.958 km
Semi-major axis
7,497.564 km
Eccentricity
0.03834
Inclination
98.6256°
RAAN
236.237°
Arg. of periapsis
50.3836°
True anomaly
309.73138°
Mean anomaly
313.0487°
Eccentric anomaly
311.40087°
Mean motion
3.3432 °/min
Orbital period
107.68 mins
BSTAR
0.0012752
Loading maneuver chart data...
Computing Atmospheric mass density...

Documentation

Showing up to 5 results
|